Terre Haute, IN

3:51 PM EST on December 06, 2019 (GMT -0500)
Terre Haute International-Hulman

Weather History for KHUF - October, 2019

Change the Weather History Date:

Friday, October 25, 2019

  Actual Average Record
Temperature  
Mean Temperature 52 °F 51 °F  
Max Temperature 57 °F 62 °F 83 °F (1963)
Min Temperature 47 °F 40 °F 25 °F (2013)
Degree Days  
Heating Degree Days 13 14  
Month to date heating degree days 222 260  
Since 1 July heating degree days 224 338  
Cooling Degree Days 0 0  
Month to date cooling degree days 34 12  
Year to date cooling degree days 1298 990  
Growing Degree Days 2 (Base 50)    
Moisture  
Dew Point 44 °F    
Average Humidity 80    
Maximum Humidity 93    
Minimum Humidity 66    
Precipitation  
Precipitation T in 0.12 in 0.75 in (2002)
Month to date precipitation 2.71 2.93  
Year to date precipitation 40.64 37.63  
Sea Level Pressure  
Sea Level Pressure 30.27 in    
Wind  
Wind Speed 5 mph (NNE)    
Max Wind Speed 13 mph    
Max Gust Speed 16 mph    
Visibility 10 miles    
Events      
T = Trace of Precipitation, MM = Missing Value Source: NWS Daily Summary

Daily Weather History Graph

Daily Weather History Graph

Search for Another Location

Airport or City:

Astronomy

Oct. 25, 2019 Rise Set
Actual Time 8:09 AM EDT 6:56 PM EDT
Civil Twilight 7:41 AM EDT 7:24 PM EDT
Nautical Twilight 7:10 AM EDT 7:55 PM EDT
Astronomical Twilight 6:39 AM EDT 8:26 PM EDT
Moon 4:52 AM EDT (10/25) 5:57 PM EDT (10/25)
Length of Visible Light 11h 42m
Length of Day
10h 47m
Waning Crescent, 9% of the Moon is Illuminated
Oct 25
Waning Crescent
Oct 27
New
Nov 4
First Quarter
Nov 12
Full
Nov 19
Last Quarter

Hourly Weather History & Observations

Time (EDT) Temp. Dew Point Humidity Pressure Visibility Wind Dir Wind Speed Gust Speed Precip Events Conditions
12:53 AM 48.9 °F 44.1 °F 83% 30.31 in 10.0 mi North 5.8 mph - 0.00 in   Overcast
1:53 AM 48.9 °F 44.1 °F 83% 30.32 in 10.0 mi NNW 5.8 mph - N/A   Overcast
2:53 AM 48.0 °F 43.0 °F 83% 30.32 in 10.0 mi North 5.8 mph - N/A   Overcast
3:53 AM 48.0 °F 43.0 °F 83% 30.32 in 10.0 mi North 5.8 mph - 0.00 in   Overcast
4:53 AM 48.0 °F 43.0 °F 83% 30.31 in 10.0 mi NE 4.6 mph - N/A   Overcast
5:53 AM 46.9 °F 43.0 °F 86% 30.30 in 10.0 mi NNE 4.6 mph - N/A   Overcast
6:53 AM 46.9 °F 43.0 °F 86% 30.31 in 10.0 mi North 6.9 mph - N/A   Overcast
7:53 AM 46.9 °F 42.1 °F 83% 30.31 in 10.0 mi NNE 5.8 mph - N/A   Overcast
8:53 AM 46.9 °F 43.0 °F 86% 30.31 in 10.0 mi ENE 3.5 mph - N/A   Overcast
9:53 AM 48.9 °F 43.0 °F 80% 30.32 in 10.0 mi NNW 3.5 mph - N/A   Overcast
10:53 AM 50.0 °F 43.0 °F 77% 30.33 in 10.0 mi North 3.5 mph - N/A   Overcast
11:53 AM 51.1 °F 44.1 °F 77% 30.33 in 10.0 mi NNW 4.6 mph - N/A   Overcast
12:53 PM 53.1 °F 45.0 °F 74% 30.32 in 10.0 mi North 5.8 mph - N/A   Overcast
1:53 PM 55.9 °F 45.0 °F 67% 30.28 in 10.0 mi NNW 5.8 mph - N/A   Mostly Cloudy
2:53 PM 57.0 °F 46.0 °F 67% 30.24 in 10.0 mi North 9.2 mph - N/A   Overcast
3:53 PM 55.9 °F 44.1 °F 64% 30.23 in 10.0 mi North 9.2 mph - N/A   Overcast
4:53 PM 55.9 °F 44.1 °F 64% 30.23 in 10.0 mi NNE 6.9 mph - N/A   Overcast
5:53 PM 55.9 °F 44.1 °F 64% 30.22 in 10.0 mi NNE 4.6 mph - N/A   Overcast
6:53 PM 54.0 °F 44.1 °F 69% 30.22 in 10.0 mi NNE 4.6 mph - N/A   Clear
7:53 PM 52.0 °F 44.1 °F 74% 30.23 in 10.0 mi Calm Calm - N/A   Clear
8:53 PM 48.9 °F 46.0 °F 90% 30.22 in 10.0 mi NE 3.5 mph - N/A   Clear
9:53 PM 50.0 °F 45.0 °F 83% 30.22 in 10.0 mi North 5.8 mph - N/A   Clear
10:53 PM 48.0 °F 44.1 °F 86% 30.21 in 10.0 mi ENE 5.8 mph - N/A   Clear
11:53 PM 48.9 °F 43.0 °F 80% 30.19 in 10.0 mi NE 5.8 mph - N/A   Clear